TimeCDT,TemperatureF,Dew PointF,Humidity,Sea Level PressureIn,VisibilityMPH,Wind Direction,Wind SpeedMPH,Gust SpeedMPH,PrecipitationIn,Events,Conditions,WindDirDegrees,DateUTC
12:51 AM,77.0,66.9,71,29.95,9.0,South,9.2,-,N/A,,Mostly Cloudy,180,2013-09-19 05:51:00
1:51 AM,75.9,66.9,74,29.95,9.0,SSE,5.8,-,N/A,,Mostly Cloudy,160,2013-09-19 06:51:00
2:51 AM,75.9,66.9,74,29.95,7.0,South,9.2,-,N/A,,Mostly Cloudy,170,2013-09-19 07:51:00
3:51 AM,75.0,68.0,79,29.95,7.0,South,6.9,-,N/A,,Mostly Cloudy,170,2013-09-19 08:51:00
4:51 AM,75.0,69.1,82,29.95,8.0,South,6.9,-,0.00,,Mostly Cloudy,180,2013-09-19 09:51:00
5:51 AM,75.0,68.0,79,29.95,7.0,South,5.8,-,N/A,,Mostly Cloudy,170,2013-09-19 10:51:00
6:51 AM,75.0,69.1,82,29.97,7.0,South,8.1,-,N/A,,Mostly Cloudy,170,2013-09-19 11:51:00
7:51 AM,75.0,69.1,82,29.96,7.0,South,9.2,-,N/A,,Mostly Cloudy,190,2013-09-19 12:51:00
8:51 AM,77.0,69.1,76,29.96,7.0,South,8.1,-,0.00,Rain,Light Rain,190,2013-09-19 13:51:00
9:51 AM,81.0,69.1,67,29.97,8.0,SSW,11.5,-,0.00,,Mostly Cloudy,200,2013-09-19 14:51:00
10:51 AM,84.9,70.0,61,29.96,9.0,SW,11.5,-,N/A,,Mostly Cloudy,220,2013-09-19 15:51:00
11:51 AM,87.1,69.1,55,29.95,9.0,SSW,11.5,-,N/A,,Mostly Cloudy,200,2013-09-19 16:51:00
12:51 PM,88.0,68.0,51,29.94,10.0,South,16.1,21.9,N/A,,Mostly Cloudy,190,2013-09-19 17:51:00
1:51 PM,90.0,68.0,48,29.93,10.0,SSW,11.5,-,N/A,,Scattered Clouds,210,2013-09-19 18:51:00
2:51 PM,88.0,66.9,49,29.91,10.0,West,12.7,-,N/A,,Mostly Cloudy,260,2013-09-19 19:51:00
3:51 PM,91.0,66.9,45,29.88,10.0,SW,8.1,-,0.00,,Scattered Clouds,220,2013-09-19 20:51:00
4:51 PM,91.9,66.0,42,29.85,10.0,SW,8.1,-,N/A,,Scattered Clouds,220,2013-09-19 21:51:00
5:51 PM,89.1,66.9,48,29.83,10.0,South,12.7,20.7,N/A,,Scattered Clouds,170,2013-09-19 22:51:00
6:51 PM,87.1,68.0,53,29.84,10.0,South,8.1,-,N/A,,Scattered Clouds,180,2013-09-19 23:51:00
7:51 PM,84.9,69.1,59,29.86,10.0,South,11.5,18.4,N/A,,Scattered Clouds,190,2013-09-20 00:51:00
8:51 PM,84.0,70.0,63,29.87,10.0,South,11.5,-,N/A,,Scattered Clouds,180,2013-09-20 01:51:00
9:51 PM,82.9,71.1,67,29.88,10.0,South,15.0,-,N/A,,Mostly Cloudy,190,2013-09-20 02:51:00
10:51 PM,81.0,71.1,72,29.88,10.0,SSW,8.1,-,N/A,,Overcast,210,2013-09-20 03:51:00
11:51 PM,81.0,69.1,67,29.88,10.0,SSW,12.7,-,N/A,,Mostly Cloudy,210,2013-09-20 04:51:00